カタログに戻る

FENGYUN 1C DEB

運用中PO
NORAD 41828·DEBRIS·🇨🇳 China

打ち上げ May 10, 1999 から Taiyuan Satellite Launch Center

Loading…

次のパス (今後24時間)

TLE

最新Source: Space-Track

元期: Sep 13, 2026, 09:32 UTC

1 41828U 99025EYF 26256.39763405  .00008907  00000-0  18330-2 0  9997
2 41828  98.9215  48.5863 0032490  61.9959 298.4520 14.60465706514627

AllMySatでFENGYUN 1C DEBをリアルタイム追跡

Download on the App Store